FENGYUN 1C DEB

Satellite information

Favourite Embed

Satellite Type and Status

DEBRISIN ORBIT

Key statistics

Satellite FENGYUN 1C DEB at a glance.

Uptime

9668

Days in orbit

Revolutions

≈ 14.3

Per day

Orbit

SSO

Sun Synchronous Orbit

Inclination

99.1

Latest

Satellite identification and parameters

Extended collection of information and parameters for FENGYUN 1C DEB.

Object identification

Identified? True

Debris? True

Object name: FENGYUN 1C DEB

International designator: 1999-025EBG

Object number (NORAD): 36734

Object ID (CCSDS): 36734

Country: PEOPLES REPUBLIC OF CHINA (PRC)

Current information (Y/N): Y

RCS size: SMALL

Orbital parameters

Period: 101.026 minutes

Inclination: 99.0576 deg

SMA: 7185.37 km

Apoapsis: 831.324 km

Periapsis: 783.147 km

RAAN: 345.9498 deg

Eccentricy: 0.00335244

Argument of periapsis: 351.6199 deg

Mean anomaly: 8.4415 deg

Mean motion: 14.25374614 rev/day

Mean motion (dot): 0.00003899 rev/day2

B* drag term: 0.0016634888 1/REarth

Two-line elements (TLE)

Creation date: Oct. 28, 2025, 2:18 a.m.

Reference frame: TEME

Reference center: EARTH

Epoch: Oct. 27, 2025, 1:25 p.m. UTC

TLE line 0: 0 FENGYUN 1C DEB

TLE line 1: 1 36734U 99025EBG 25300.55968263 .00003899 00000-0 16635-2 0 9994

TLE line 2: 2 36734 99.0576 345.9498 0033524 351.6199 8.4415 14.25374614820766

Live tracking on map

Real-time ground track for satellite FENGYUN 1C DEB.

In-orbit conjunctions

A list of the most updated potential collisions computed for object FENGYUN 1C DEB.

Target Orbit TCA Probability of collision Miss distance Type
INTERCOSMOS 24 HEO 2025-03-22 23:57:29 0.000106885 747.0 (m) PAYLOAD

Associated space launch

Chinese polar orbiting meteorological satellite

FENGYUN 1C DEB was lifted into orbit during the mission ‘Long March 4B | Feng Yun 1C’, on board a Long March 4B space rocket.

The launch took place on May 10, 1999, 1:33 a.m. from Launch Complex 7.

For more information about the launch, click the button.

Launch to space Long March 4B | Feng Yun 1C
Long March 4B | Feng Yun 1C

Agency: N/A

Status: Launch Successful

Launch date: May 10, 1999, 1:33 a.m. UTC

Rocket: Long March 4B

Launch pad: Launch Complex 7

Location: Taiyuan Satellite Launch Center, People's Republic of China

...

Latest news about this satellite

There are no fresh news available about this satellite. Check back as we update our databases every day.


Newsletter sign-up

Weekly statistics, charts and insights to help you stay on top of the space industry.